Theta_e
324 324 324 325 325 326 326 326 326 325 325 324 324 324 323 323 323 323 323 322 322 322 322 321 321 322 321 320 319 317 312 309 310 296 296 292 290 292 291 290 288 287 289
325 323 323 324 325 325 325 325 326 326 325 325 324 324 323 323 324 323 323 323 323 322 323 322 322 321 320 320 317 315 311 307 304 295 292 291 292 292 293 291 288 288 287
325 325 322 322 322 323 324 324 324 324 324 323 323 323 323 323 324 324 324 324 324 324 323 323 322 321 319 317 314 312 308 304 301 297 292 292 291 291 289 289 289 288 287
317 323 324 324 324 323 323 323 323 323 323 323 323 323 323 324 324 325 325 325 325 324 323 321 320 319 317 315 311 308 304 300 297 295 293 291 290 288 289 289 287 287 287
307 307 307 308 311 314 318 321 322 322 322 322 322 322 323 323 323 322 322 322 320 319 317 315 314 312 311 310 308 306 302 299 294 292 290 289 289 287 288 287 287 287 287
306 306 307 307 307 307 308 308 309 311 312 314 317 318 318 318 314 315 316 316 314 312 312 311 309 307 307 306 303 301 301 299 294 292 290 290 289 289 287 288 287 286 286
306 306 306 306 306 306 305 306 308 309 309 310 310 310 310 309 309 308 310 310 310 307 306 305 305 305 303 302 300 297 296 296 296 295 291 290 289 289 290 287 287 288 287
304 304 304 305 304 303 303 303 303 304 304 304 304 304 305 305 306 307 307 306 304 303 304 302 301 299 299 298 297 295 294 293 293 292 293 292 291 292 291 290 290 288 287
301 301 302 302 301 301 301 301 301 301 302 303 302 301 303 304 304 305 303 302 301 300 300 300 299 298 297 296 293 292 291 291 291 290 290 290 290 290 290 289 288 286 285
296 298 299 300 301 302 302 302 302 301 300 299 300 300 299 299 299 299 299 299 298 296 295 295 294 293 292 291 291 291 290 290 289 290 289 290 291 291 289 288 288 286 286
295 296 297 299 300 301 301 301 299 299 297 297 297 296 296 297 295 294 293 293 292 292 291 291 292 292 292 290 290 290 290 290 289 289 289 289 288 287 287 287 287 288 287
294 295 297 298 298 298 299 297 297 297 297 295 294 293 293 292 293 292 292 291 291 291 290 290 290 290 290 290 289 289 289 289 290 289 288 288 287 287 286 286 286 286 286
293 294 294 295 295 295 296 295 294 294 293 291 291 290 290 290 291 291 290 289 289 288 288 288 290 289 289 289 289 289 288 288 288 287 286 286 287 287 286 285 285 286 285
291 291 292 292 291 291 291 291 291 290 290 289 288 288 287 288 289 289 289 289 289 288 288 288 288 288 288 288 288 287 286 285 284 284 284 283 284 285 285 285 286 285 284
288 288 288 289 289 288 288 287 288 287 288 287 286 286 286 286 286 287 288 288 287 287 286 285 286 286 285 285 285 284 285 284 284 284 283 282 282 284 285 284 284 283 282
286 286 286 286 286 285 285 285 286 286 285 285 285 285 285 285 286 287 287 287 287 286 285 284 283 283 283 283 283 283 283 283 283 283 283 282 281 281 283 283 282 281 281
285 285 284 284 284 285 284 284 283 282 282 282 282 283 284 284 285 287 288 287 286 285 284 283 282 281 280 281 281 281 281 282 281 281 281 281 282 282 281 280 280 279 279
283 283 283 283 283 283 283 283 283 283 282 281 281 281 282 284 284 284 285 286 286 285 283 283 282 281 281 280 279 280 281 281 281 281 281 281 280 280 279 278 278 277 277
281 281 281 281 281 281 282 282 282 282 280 280 281 281 282 282 282 283 283 283 283 283 283 283 282 281 280 280 280 280 280 280 280 279 279 279 278 277 276 276 275 275 275
279 279 280 280 280 280 280 280 280 279 279 279 279 278 278 279 281 280 281 281 281 281 281 281 281 280 280 279 279 279 279 278 278 277 277 276 275 275 274 274 273 273 272
276 276 277 277 277 277 277 277 276 277 276 276 276 276 274 277 277 276 277 278 278 278 278 278 278 278 278 277 277 277 276 276 276 275 275 274 274 273 273 272 272 271 271
273 273 274 274 274 274 274 274 274 274 274 275 274 274 274 275 275 275 275 275 275 275 275 275 275 275 275 275 274 274 274 274 274 273 273 272 272 271 271 270 270 269 269
271 271 272 271 271 271 271 271 271 271 271 271 271 271 271 271 271 271 271 271 271 271 271 272 272 272 271 271 271 271 271 271 271 271 270 270 270 270 269 269 268 268 268
270 270 269 269 269 269 269 269 269 269 269 269 269 269 269 269 269 269 269 269 269 269 269 269 269 269 269 269 269 269 269 269 269 269 269 268 268 268 268 267 267 267 267
268 268 268 268 268 267 268 268 268 268 268 268 268 268 268 268 269 269 268 268 268 268 268 268 268 267 267 267 267 267 267 267 267 267 267 266 267 267 266 266 266 266 265
267 267 266 266 266 266 266 266 267 267 267 267 267 267 267 267 267 268 268 268 267 267 267 267 267 266 266 266 266 266 266 266 266 266 265 265 265 265 265 265 265 264 264
Wind_Speed
31 33 33 34 36 37 34 35 37 34 34 34 34 35 36 36 36 36 36 35 33 36 37 37 40 42 37 36 40 41 36 30 18 0 9 15 18 29 29 26 23 23 24
25 28 30 32 33 34 35 36 36 36 36 35 34 34 35 35 35 35 35 36 37 36 39 38 39 39 35 38 35 36 33 28 21 10 13 17 20 27 29 30 26 24 23
18 21 26 28 30 32 32 33 33 33 33 32 32 33 34 34 35 35 35 35 36 38 38 35 36 35 33 34 31 30 27 25 21 16 9 17 16 26 29 26 26 24 24
10 15 18 20 22 22 23 24 26 28 29 30 31 31 32 31 32 33 34 34 35 35 33 29 28 28 29 27 25 21 19 16 15 17 13 19 17 21 26 26 25 28 25
2 4 7 9 12 14 16 17 16 14 15 17 20 22 24 26 24 23 25 22 22 19 17 16 16 18 18 17 19 20 17 16 20 19 15 13 18 21 28 25 23 25 22
1 2 3 4 4 4 4 4 4 5 7 9 10 10 11 11 9 9 11 9 8 9 10 10 11 11 11 10 11 14 12 19 23 20 17 15 17 20 24 24 22 14 5
0 1 1 2 2 2 2 4 3 3 2 2 2 1 1 1 2 3 5 4 5 6 5 6 7 9 9 8 8 7 8 13 16 22 20 20 19 28 27 22 23 17 11
6 5 4 3 5 6 6 7 7 6 6 5 5 4 2 2 4 5 5 3 2 2 4 5 6 7 7 7 7 6 8 11 14 15 17 18 18 18 20 23 20 22 19
8 6 6 7 9 9 9 9 8 8 8 7 6 6 4 3 3 3 2 1 1 0 2 3 4 5 5 4 9 11 12 14 13 13 15 15 14 12 15 17 18 19 11
7 7 8 11 11 11 9 8 9 7 9 9 8 6 6 5 4 4 4 3 3 3 3 3 4 3 1 5 9 11 12 14 15 15 15 13 13 15 17 19 24 24 9
10 11 12 12 12 12 11 10 10 10 10 10 9 9 8 8 6 8 8 8 7 7 7 7 5 3 2 7 7 8 9 9 13 11 9 9 10 12 16 19 22 21 18
15 13 13 12 12 12 12 11 10 8 9 10 9 10 10 8 8 8 9 9 8 7 7 6 4 4 4 6 4 6 6 6 9 10 12 13 15 16 18 17 18 20 19
16 15 13 12 11 10 10 10 10 9 10 11 11 11 10 9 8 7 8 8 8 8 8 7 6 6 5 6 4 5 7 6 8 11 14 16 17 17 16 17 16 17 18
17 15 14 13 13 12 12 11 11 11 11 10 10 10 9 8 7 6 5 4 5 7 6 6 6 7 5 5 5 3 4 5 6 7 8 9 11 12 15 14 13 12 15
18 18 17 16 15 16 16 14 12 12 10 11 10 9 8 9 8 4 4 5 6 7 6 7 6 5 4 3 3 1 3 6 7 8 9 8 7 7 10 10 11 13 16
19 17 16 16 16 16 17 19 17 15 15 16 13 10 9 8 7 6 4 3 3 5 7 7 7 5 3 2 1 2 4 7 10 11 10 10 10 11 13 14 15 16 15
20 18 16 15 16 16 15 14 16 13 15 17 14 12 10 7 5 4 4 4 3 4 6 5 5 4 4 4 5 6 7 8 7 10 11 13 15 15 14 15 14 15 17
17 16 16 16 16 16 15 13 11 10 8 8 10 10 9 8 6 4 3 3 5 1 3 4 4 5 5 6 6 6 6 6 6 7 10 11 13 13 13 15 15 16 16
16 16 16 15 15 16 15 15 13 12 10 9 8 7 6 5 5 6 6 5 2 1 3 4 5 6 7 7 8 7 6 7 8 10 11 12 12 12 14 15 15 16 16
16 15 15 15 16 16 15 15 13 11 10 9 7 8 7 3 3 5 3 2 1 2 4 6 7 8 7 7 8 9 11 11 12 12 13 13 12 12 14 14 14 15 15
16 16 16 18 18 16 14 12 10 8 8 5 5 7 7 3 3 5 4 4 4 6 8 9 10 10 11 12 13 14 14 15 15 15 14 13 13 13 13 13 14 14 14
16 16 16 18 14 13 11 9 8 7 5 4 4 5 5 5 4 5 6 7 8 9 11 12 12 13 13 13 14 15 15 15 15 15 15 14 14 14 14 13 13 13 12
14 14 14 13 12 10 8 8 6 5 6 7 8 9 9 10 10 10 10 11 12 12 13 14 15 15 15 15 15 15 16 16 15 15 15 14 14 15 14 14 13 14 13
15 14 13 11 10 9 8 8 8 8 9 10 11 12 13 14 14 14 14 15 16 16 16 16 16 17 17 16 16 16 16 16 16 15 15 15 15 14 15 15 15 14 13
14 14 13 12 11 11 11 12 12 13 14 14 15 16 16 17 18 17 17 17 19 19 18 18 18 18 18 18 17 16 16 16 16 15 15 16 16 16 16 16 15 14 13
15 14 14 14 15 15 16 18 19 19 20 20 20 20 21 22 22 21 21 21 21 21 21 19 18 19 19 19 18 18 17 16 16 15 15 15 16 16 16 17 16 14 14
Wind_Direction
230 228 224 226 228 229 227 233 239 240 244 246 251 253 254 255 255 254 251 251 247 251 252 249 251 256 247 244 247 250 245 240 251 146 206 219 214 201 202 218 221 222 221
240 238 235 236 235 234 237 239 244 249 251 253 254 253 255 255 257 253 250 252 249 246 253 249 249 253 248 251 248 251 250 248 234 181 176 182 194 200 207 207 214 227 229
238 238 241 240 239 240 244 248 251 253 255 257 256 255 256 257 259 256 256 255 254 255 257 253 256 257 254 255 254 258 258 250 237 202 166 183 186 200 203 201 217 225 233
237 237 236 241 241 243 247 249 252 255 256 256 256 257 260 262 263 264 259 257 256 257 258 257 259 261 264 269 267 270 263 244 222 195 183 178 184 193 203 199 213 224 229
204 238 243 241 246 246 247 247 244 240 240 246 250 253 254 251 251 254 250 251 262 265 272 276 287 285 281 284 275 269 248 229 206 183 168 172 180 176 188 205 212 224 233
246 251 247 244 233 232 236 250 250 250 255 257 256 251 245 253 262 261 268 271 282 286 289 300 294 292 297 295 291 268 261 229 205 189 187 188 181 188 190 205 202 199 227
180 161 180 174 154 126 124 127 138 149 147 157 177 182 169 251 353 348 336 326 313 302 314 319 312 314 309 301 285 263 249 231 241 222 194 184 180 200 201 197 205 207 215
122 124 121 125 126 120 115 109 109 107 105 101 95 83 66 14 332 321 301 310 292 310 322 309 311 309 306 303 276 242 233 221 215 219 226 218 209 212 221 220 224 223 228
116 127 133 135 129 121 116 110 105 108 108 97 86 89 70 38 358 333 335 69 112 48 329 316 310 298 280 253 225 211 198 196 193 196 209 215 198 205 221 214 208 203 221
132 138 137 136 132 128 124 121 117 116 97 98 88 73 75 64 45 65 74 74 100 84 60 42 22 351 278 204 223 214 197 197 195 201 205 213 238 233 223 218 209 199 181
135 136 138 140 138 136 133 129 123 112 114 98 85 72 65 61 66 76 72 69 67 60 48 37 36 55 118 175 214 224 222 220 199 203 221 238 225 215 214 214 221 226 218
139 140 135 132 132 131 128 115 110 114 103 93 89 73 65 63 77 84 65 58 54 58 47 39 46 86 116 171 188 189 202 206 215 213 209 217 222 219 220 224 231 237 243
142 131 123 116 108 107 112 115 112 109 102 87 81 70 60 61 75 81 60 61 57 58 49 57 76 120 152 174 217 182 203 206 206 217 230 240 240 241 239 238 243 254 264
128 126 124 121 118 112 111 108 102 93 89 83 79 77 77 74 81 98 81 62 59 61 69 86 111 136 140 160 175 205 227 231 237 245 254 264 263 248 240 240 247 261 274
123 123 121 121 116 107 95 80 87 89 89 97 85 79 67 47 31 45 63 46 31 55 64 86 98 106 121 105 88 157 253 269 276 282 284 276 265 253 255 256 265 278 252
120 117 118 120 120 116 112 101 85 90 86 81 77 77 84 61 58 88 112 109 84 63 75 73 65 57 67 55 317 273 264 259 271 275 272 266 266 269 274 283 284 280 269
123 122 124 126 122 128 133 129 120 97 77 65 57 54 54 54 74 105 133 154 132 81 78 66 55 31 349 329 316 295 286 301 293 266 267 269 274 276 277 278 279 279 272
110 116 118 118 119 116 116 113 115 109 83 67 67 58 63 51 65 85 132 144 141 43 37 11 360 348 341 340 332 328 326 312 290 273 270 274 278 281 278 276 278 273 263
107 106 107 109 105 104 100 91 87 90 92 90 97 82 92 105 97 88 94 107 115 328 323 318 314 310 309 308 305 300 294 293 291 286 286 286 286 282 278 274 274 271 271
96 101 104 101 96 90 88 90 93 94 97 94 93 51 23 48 100 75 73 68 38 341 312 305 298 298 297 289 286 287 287 286 284 284 284 282 279 275 272 272 270 269 269
85 88 88 88 82 81 83 85 91 96 94 87 80 49 20 26 18 347 354 342 315 295 288 289 289 290 291 291 290 287 284 283 283 283 281 279 275 270 270 269 269 269 269
63 65 67 70 71 70 67 63 58 50 39 15 11 0 0 340 331 327 324 319 314 308 304 302 301 302 302 300 297 293 291 289 286 284 281 277 277 275 271 269 267 265 263
49 50 51 52 50 47 40 33 22 7 352 346 339 333 332 332 332 329 323 316 310 306 302 301 301 301 300 298 296 294 292 292 289 283 281 280 274 270 268 266 265 263 259
30 29 29 27 22 14 5 353 342 333 329 327 327 326 324 321 318 316 313 310 307 304 303 302 300 300 297 295 293 291 290 288 283 281 279 275 272 270 266 261 259 259 260
15 11 7 0 353 343 334 328 325 324 324 325 323 320 317 314 312 313 313 310 307 306 306 302 299 297 297 297 294 290 286 283 282 281 273 271 271 268 264 264 264 266 263
351 345 338 332 326 322 319 318 318 317 316 316 314 313 310 309 307 307 308 304 304 303 300 298 298 297 295 292 292 290 287 283 281 279 276 271 267 263 263 265 262 252 255